Regional Weather Roundup
Issued by NWS

Home | Current Version | Previous Version | Text Only | Print | Product List | Glossary Off
Versions: 1 2 3 4 5 6 7 8 9 10 11 12 13 14 15 16 17 18 19 20 21 22 23 24 25 26 27 28 29 30 31 32 33 34 35 36 37 38 39 40 41 42 43 44 45 46 47 48 49 50

000
ASUS45 KSLC 250010
RWRUT

UTAH REGIONAL WEATHER ROUNDUP
NATIONAL WEATHER SERVICE SALT LAKE CITY UT
600 PM MDT SUN MAY 24 2015

UTZ001>011-023>025-250100-

NORTHERN UTAH

CITY           SKY/WX    TMP DP  RH WIND       PRES   REMARKS
BRIGHAM CITY   MOSUNNY   62  46  55 CALM      29.88F
HILL AFB       PTSUNNY   61  46  58 VRB5      29.89F
LOGAN          MOSUNNY   63  44  50 NW3       29.86F
OGDEN          PTSUNNY   63  45  51 S8        29.88F
PROVO AIRPORT  NOT AVBL
SALT LAKE CITY PTSUNNY   65  44  46 W7        29.88F
VERNAL         CLOUDY    51  44  77 E3        29.92S
WENDOVER       CLOUDY    63  45  51 W8        29.91F
HEBER CITY     LGT RAIN  57  41  54 SW10G17   29.89S
WEST JORDAN    SUNNY     64  43  45 NW8       29.90S

$$

UTZ012>022-026-027-250100-

SOUTHERN/CENTRAL UTAH

CITY           SKY/WX    TMP DP  RH WIND       PRES   REMARKS
BLANDING       PTSUNNY   58  42  54 S5        29.99F
BRYCE CANYON   PTSUNNY   56  36  47 NW15      29.99S
CEDAR CITY     CLOUDY    58  44  60 NW3       29.95S
DELTA          CLOUDY    64  42  43 W9G16     29.90F
HANKSVILLE     SUNNY     68  34  28 CALM      29.84F
MILFORD        LGT RAIN  57  48  72 W8        29.93
MOAB/CYNLANDS  SUNNY     68  34  28 W6        29.82F
PRICE          MOSUNNY   65  36  34 SW8       29.87R
ST GEORGE      MOCLDY    70  46  43 SW5       29.89S

$$

REGIONAL REPORTS     COLORADO/ARIZONA

CITY           SKY/WX    TMP DP  RH WIND       PRES   REMARKS
CRAIG, CO      LGT RAIN  47  41  80 W8        29.94S
GRAND JUNCTION CLOUDY    59  39  47 NW8       29.87F
RIFLE          LGT RAIN  49  43  80 N3        29.94S
MONTROSE       CLOUDY    56  36  47 CALM      29.92S
CORTEZ         PTSUNNY   59  39  47 W10       29.93F
PAGE, AZ       PTSUNNY   65  46  50 SW5       29.88F
GRAND CANYON   PTSUNNY   55  43  63 VRB6      30.01F
KINGMAN        CLOUDY    75  37  25 SW13      29.88F
FLAGSTAFF      LGT RAIN  47  41  80 NW10G22   30.06R

$$

REGIONAL REPORTS    NEVADA/IDAHO/WYOMING

CITY           SKY/WX    TMP DP  RH WIND       PRES   REMARKS
LAS VEGAS, NV  PTSUNNY   81  43  26 SW13      29.76F
ELY            PTSUNNY   54  40  59 N23G39    30.00R
ELKO           CLOUDY    59  46  62 CALM      29.97R THUNDER
POCATELLO, ID  MOSUNNY   60  48  64 SW15      29.90F
BURLEY         CLOUDY    55  47  74 SE6       29.88F
EVANSTON, WY   PTSUNNY   49  42  77 S12       29.96S
ROCK SPRINGS   CLOUDY    44  40  85 CALM      29.96R
KEMMERER       LGT RAIN  43  41  93 E9G21     29.96R

$$



USA.gov is the U.S. government's official web portal to all federal, state and local government web resources and services.